Location: Newark
(48.1500°N, 2.9667°W)
Time: 06:18:14
(UTC+00:00)

Altair - Pass Details

Date: 03 February 2020
Orbit: 1502 x 1682 km, 47.2° (Epoch: 17 February)

Event Time Altitude Azimuth Distance (km) Brightness Sun altitude
Rises 14:21:05 0° 288° (WNW) 4,940 10.3 20.3°
Reaches altitude 10° 14:25:49 10° 270° (W) 3,942 10.2 20.0°
Maximum altitude 14:31:27 17° 235° (SW) 3,409 10.9 19.5°
Drops below altitude 10° 14:37:03 10° 200° (SSW) 3,889 11.6 19.0°
Sets 14:41:42 0° 182° (S) 4,842 11.1 18.5°
